Weather History for KJAN - August, 2013

Change the Weather History Date:

Tuesday, August 27, 2013

  Actual Average Record
Temperature  
Mean Temperature 75 °F 81 °F  
Max Temperature 88 °F 91 °F 105 °F (1943)
Min Temperature 62 °F 70 °F 57 °F (1958)
Degree Days  
Heating Degree Days 0 0  
Month to date heating degree days 0 0  
Since 1 June heating degree days 0 0  
Since 1 July heating degree days 0 0  
Cooling Degree Days 10 16  
Month to date cooling degree days 462 447  
Year to date cooling degree days 1703 1742  
Since 1 June cooling degree days 1385 1384  
Growing Degree Days 25 (Base 50)    
Moisture  
Dew Point 62 °F    
Average Humidity 67    
Maximum Humidity 93    
Minimum Humidity 40    
Precipitation  
Precipitation 0.00 in 0.11 in 1.57 in (1996)
Month to date precipitation 3.05 3.80  
Year to date precipitation 43.75 36.84  
Sea Level Pressure  
Sea Level Pressure 30.11 in    
Wind  
Wind Speed 2 mph (NE)    
Max Wind Speed 13 mph    
Max Gust Speed 17 mph    
Visibility 10 miles    
Events      
T = Trace of Precipitation, MM = Missing Value Source: NWS Daily Summary

Daily Weather History Graph

Daily Weather History Graph

Search for Another Location

Airport or City:

Trip Planner

Search our weather history database for the weather conditions in past years. The results will help you decide how hot, cold, wet, or windy it might be!

Date:

Astronomy

Aug. 27, 2013 Rise Set
Actual Time 6:32 AM CDT 7:30 PM CDT
Civil Twilight 6:07 AM CDT 7:55 PM CDT
Nautical Twilight 5:37 AM CDT 8:25 PM CDT
Astronomical Twilight 5:06 AM CDT 8:56 PM CDT
Moon 11:49 PM CDT (8/27) 1:05 PM CDT (8/27)
Length of Visible Light 13h 48m
Length of Day
12h 58m
Waning Gibbous, 57% of the Moon is Illuminated
Aug 27
Waning Gibbous
Aug 28
Last Quarter
Sep 5
New
Sep 12
First Quarter
Sep 19
Full

Hourly Weather History & Observations

Time (CDT) Temp. Heat Index Dew Point Humidity Pressure Visibility Wind Dir Wind Speed Gust Speed Precip Events Conditions
12:54 AM 66.9 °F - 63.0 °F 87% 30.14 in 10.0 mi Calm Calm - N/A   Clear
1:54 AM 69.1 °F - 62.1 °F 78% 30.12 in 10.0 mi Calm Calm - N/A   Clear
2:54 AM 66.9 °F - 62.1 °F 84% 30.11 in 10.0 mi Calm Calm - N/A   Clear
3:54 AM 64.9 °F - 62.1 °F 90% 30.11 in 10.0 mi Calm Calm - N/A   Clear
4:54 AM 64.0 °F - 62.1 °F 93% 30.12 in 10.0 mi Calm Calm - N/A   Clear
5:54 AM 64.0 °F - 61.0 °F 90% 30.13 in 10.0 mi Calm Calm - 0.01 in   Clear
6:54 AM 62.1 °F - 61.0 °F 96% 30.14 in 9.0 mi Calm Calm - N/A   Clear
7:54 AM 69.1 °F - 64.0 °F 84% 30.15 in 10.0 mi Calm Calm - N/A   Clear
8:54 AM 75.9 °F - 64.0 °F 67% 30.15 in 10.0 mi Calm Calm - N/A   Clear
9:54 AM 80.1 °F 81.1 °F 61.0 °F 52% 30.16 in 10.0 mi NE 3.5 mph - N/A   Clear
10:54 AM 82.0 °F 82.1 °F 59.0 °F 45% 30.15 in 10.0 mi Variable 4.6 mph - N/A   Partly Cloudy
11:54 AM 84.0 °F 84.0 °F 60.1 °F 44% 30.14 in 10.0 mi NE 5.8 mph - N/A   Partly Cloudy
12:54 PM 84.9 °F 84.8 °F 60.1 °F 43% 30.12 in 10.0 mi NNE 5.8 mph - N/A   Partly Cloudy
1:54 PM 86.0 °F 86.1 °F 61.0 °F 43% 30.10 in 10.0 mi NNW 6.9 mph - N/A   Partly Cloudy
2:54 PM 84.9 °F 84.8 °F 60.1 °F 43% 30.08 in 10.0 mi NNE 5.8 mph - N/A   Partly Cloudy
3:54 PM 86.0 °F 85.7 °F 60.1 °F 41% 30.07 in 10.0 mi North 3.5 mph - N/A   Partly Cloudy
4:54 PM 86.0 °F 85.4 °F 59.0 °F 40% 30.06 in 10.0 mi Calm Calm - N/A   Partly Cloudy
5:54 PM 86.0 °F 85.7 °F 60.1 °F 41% 30.06 in 10.0 mi ENE 4.6 mph - N/A   Partly Cloudy
6:54 PM 84.0 °F 84.4 °F 61.0 °F 46% 30.05 in 10.0 mi ENE 3.5 mph - N/A   Partly Cloudy
7:54 PM 75.0 °F - 64.9 °F 71% 30.05 in 10.0 mi East 4.6 mph - N/A   Clear
8:54 PM 73.0 °F - 64.0 °F 73% 30.06 in 10.0 mi Calm Calm - N/A   Clear
9:54 PM 72.0 °F - 64.9 °F 78% 30.07 in 10.0 mi Calm Calm - N/A   Clear
10:54 PM 70.0 °F - 63.0 °F 78% 30.08 in 10.0 mi SSE 4.6 mph - N/A   Clear
11:54 PM 70.0 °F - 63.0 °F 78% - 10.0 mi Calm Calm - N/A   Clear